Regional Weather Roundup
Issued by NWS

Home | Current Version | Previous Version | Graphics & Text | Print | Product List | Glossary On
Versions: 1 2 3 4 5 6 7 8 9 10 11 12 13 14 15 16 17 18 19 20 21 22 23 24 25 26 27
000
ASUS45 KBOI 241810
RWRID

IDAHO REGIONAL WEATHER ROUNDUP
NATIONAL WEATHER SERVICE BOISE ID
1200 PM MDT SUN SEP 24 2017

NOTE: "FAIR" INDICATES FEW OR NO CLOUDS BELOW 12000 FEET
WITH NO SIGNIFICANT WEATHER AND/OR OBSTRUCTIONS TO VISIBILITY

IDZ012-014-241900-
SOUTHWEST IDAHO


CITY           SKY/WX    TMP DP  RH WIND       PRES   REMARKS
BOISE          SUNNY     54  35  48 N6        30.06S
CALDWELL       SUNNY     59  37  44 W13       30.07F
MOUNTAIN HOME  SUNNY     56  34  43 NW16      30.05S
$$

IDZ016-017-241900-
SOUTHCENTRAL IDAHO


CITY           SKY/WX    TMP DP  RH WIND       PRES   REMARKS
BURLEY         SUNNY     48  34  58 W9        30.04S
JEROME         SUNNY     50  35  56 S13       30.05S
TWIN FALLS     SUNNY     50  34  54 W13       30.05S
$$

IDZ019>023-241900-
SOUTHEAST IDAHO


CITY           SKY/WX    TMP DP  RH WIND       PRES   REMARKS
IDAHO FALLS    MOSUNNY   52  32  46 N10G17    29.99F
POCATELLO      MOSUNNY   50  30  46 NW3       30.03S
REXBURG        SUNNY     52  30  43 N8        29.98S
$$

IDZ006-010-011-018-031-032-241900-
CENTRAL IDAHO MOUNTAINS


CITY           SKY/WX    TMP DP  RH WIND       PRES   REMARKS
MCCALL         SUNNY     51  25  36 NW10      30.07S
HAILEY         SUNNY     50  21  32 W8        30.04R
STANLEY          N/A     42  23  46 VRB3      30.08F
SALMON         SUNNY     47  29  49 CALM      30.11F
CHALLIS        MOSUNNY   49  26  41 NE8       30.07F
$$

IDZ002-004-006-007-026-241900-
NORTHERN IDAHO


CITY           SKY/WX    TMP DP  RH WIND       PRES   REMARKS
LEWISTON       CLOUDY    53  45  74 CALM      30.15F
LOWELL           N/A     48  37  65 CALM      30.20F
COEUR D`ALENE  SUNNY     58  41  53 SW3       30.13S
MULLAN PASS    PTSUNNY   43  35  73 VRB3      30.13S
$$




USA.gov is the U.S. government's official web portal to all federal, state and local government web resources and services.